When you browse on this site, cookies collect data to enhance your experience and personalize the content and advertising you see.
Visit our Privacy Policy to learn more. By continuing to use the site, you agree to this use of cookies and data.
  • In Hungary
  • List of Countries
  • For 7 days
  • Water Temperature
  • Weather Map
  • News
  • Weather Widgets
  • user-avatar
    Login

    Hourly Weather Zabiczyn

    Today, 18 August, Sunday

    Time Temperature Precipitation Wind Pressure Humidity
    00:00 +20°C° 0 mm 3 mps 749 mmHg 62%
    01:00 +19°C° 0 mm 3 mps 748 mmHg 65%
    02:00 +19°C° 0 mm 3 mps 748 mmHg 66%
    03:00 +19°C° 0 mm 3 mps 748 mmHg 66%
    04:00 +19°C° 0 mm 3 mps 748 mmHg 67%
    05:00 +19°C° 0 mm 3 mps 748 mmHg 67%
    06:00 +20°C° 0 mm 3 mps 748 mmHg 67%
    07:00 +21°C° 0 mm 3 mps 748 mmHg 67%
    08:00 +21°C° 0 mm 3 mps 748 mmHg 68%
    09:00 +21°C° 0 mm 3 mps 748 mmHg 69%
    10:00 +21°C° 0 mm 3 mps 747 mmHg 70%
    11:00 +21°C° 0.1 mm 3 mps 747 mmHg 71%
    12:00 +21°C° 0.1 mm 3 mps 747 mmHg 72%
    13:00 +21°C° 0.1 mm 3 mps 747 mmHg 73%
    14:00 +22°C° 0 mm 3 mps 747 mmHg 71%
    15:00 +23°C° 0 mm 4 mps 747 mmHg 68%
    16:00 +23°C° 0 mm 4 mps 746 mmHg 65%
    17:00 +23°C° 0 mm 4 mps 746 mmHg 67%
    18:00 +24°C° 0 mm 3 mps 746 mmHg 69%
    19:00 +24°C° 0 mm 3 mps 746 mmHg 71%
    20:00 +22°C° 0.2 mm 3 mps 746 mmHg 75%
    21:00 +22°C° 0.2 mm 3 mps 746 mmHg 79%
    22:00 +21°C° 0.2 mm 4 mps 747 mmHg 83%
    23:00 +20°C° 0.1 mm 3 mps 747 mmHg 86%

    Tomorrow, 19 August, Monday

    Time Temperature Precipitation Wind Pressure Humidity
    00:00 +20°C° 0.1 mm 3 mps 748 mmHg 89%
    01:00 +19°C° 0.1 mm 3 mps 748 mmHg 92%
    02:00 +19°C° 0 mm 3 mps 748 mmHg 93%
    03:00 +19°C° 0 mm 3 mps 748 mmHg 93%
    04:00 +18°C° 0 mm 2 mps 749 mmHg 94%
    05:00 +19°C° 0 mm 2 mps 749 mmHg 92%
    06:00 +19°C° 0 mm 3 mps 750 mmHg 90%
    07:00 +19°C° 0 mm 3 mps 750 mmHg 87%
    08:00 +20°C° 0.2 mm 3 mps 751 mmHg 84%
    09:00 +20°C° 0.2 mm 2 mps 751 mmHg 81%
    10:00 +21°C° 0.2 mm 2 mps 751 mmHg 77%
    11:00 +21°C° 0.6 mm 3 mps 751 mmHg 77%
    12:00 +21°C° 0.6 mm 3 mps 752 mmHg 76%
    13:00 +21°C° 0.6 mm 3 mps 752 mmHg 76%
    14:00 +22°C° 0.3 mm 3 mps 752 mmHg 73%
    15:00 +22°C° 0.3 mm 3 mps 752 mmHg 69%
    16:00 +22°C° 0.3 mm 3 mps 753 mmHg 66%
    17:00 +22°C° 0 mm 3 mps 753 mmHg 68%
    18:00 +21°C° 0 mm 2 mps 753 mmHg 70%
    19:00 +20°C° 0 mm 2 mps 753 mmHg 73%
    20:00 +19°C° 0 mm 2 mps 754 mmHg 71%
    21:00 +18°C° 0 mm 2 mps 754 mmHg 70%
    22:00 +17°C° 0 mm 2 mps 755 mmHg 68%
    23:00 +17°C° 0 mm 2 mps 755 mmHg 69%

    Day after tomorrow, 20 August, Tuesday

    Time Temperature Precipitation Wind Pressure Humidity
    00:00 +16°C° 0 mm 1 mps 755 mmHg 69%
    01:00 +16°C° 0 mm 1 mps 756 mmHg 70%
    02:00 +15°C° 0 mm 1 mps 756 mmHg 71%
    03:00 +15°C° 0 mm 1 mps 756 mmHg 73%
    04:00 +15°C° 0 mm 1 mps 756 mmHg 75%
    05:00 +16°C° 0 mm 1 mps 756 mmHg 71%
    06:00 +18°C° 0 mm 1 mps 757 mmHg 68%
    07:00 +19°C° 0 mm 1 mps 757 mmHg 65%
    08:00 +21°C° 0 mm 1 mps 757 mmHg 60%
    09:00 +21°C° 0 mm 2 mps 757 mmHg 54%
    10:00 +23°C° 0 mm 2 mps 757 mmHg 49%
    11:00 +24°C° 0 mm 2 mps 757 mmHg 46%
    12:00 +25°C° 0 mm 1 mps 757 mmHg 42%
    13:00 +26°C° 0 mm 1 mps 757 mmHg 39%
    14:00 +26°C° 0 mm 1 mps 756 mmHg 38%
    15:00 +27°C° 0 mm 1 mps 756 mmHg 38%
    16:00 +27°C° 0 mm 1 mps 756 mmHg 38%
    17:00 +26°C° 0 mm 2 mps 756 mmHg 42%
    18:00 +24°C° 0 mm 2 mps 756 mmHg 46%
    19:00 +23°C° 0 mm 2 mps 756 mmHg 51%
    20:00 +21°C° 0.2 mm 3 mps 756 mmHg 56%
    21:00 +20°C° 0.2 mm 4 mps 756 mmHg 61%
    22:00 +19°C° 0.2 mm 5 mps 757 mmHg 65%
    23:00 +19°C° 0.6 mm 5 mps 757 mmHg 72%

    21 August, Wednesday

    Time Temperature Precipitation Wind Pressure Humidity
    00:00 +17°C° 0.6 mm 5 mps 756 mmHg 78%
    01:00 +16°C° 0.6 mm 5 mps 756 mmHg 84%
    02:00 +16°C° 2.8 mm 5 mps 756 mmHg 87%
    03:00 +15°C° 2.8 mm 5 mps 756 mmHg 90%
    04:00 +15°C° 2.8 mm 5 mps 757 mmHg 92%
    05:00 +15°C° 1.5 mm 5 mps 757 mmHg 92%
    06:00 +15°C° 1.5 mm 4 mps 757 mmHg 92%
    07:00 +15°C° 1.5 mm 4 mps 758 mmHg 91%
    08:00 +16°C° 0.1 mm 3 mps 758 mmHg 89%
    09:00 +17°C° 0.1 mm 3 mps 758 mmHg 86%
    10:00 +17°C° 0.1 mm 3 mps 759 mmHg 83%
    11:00 +18°C° 0 mm 3 mps 759 mmHg 78%
    12:00 +19°C° 0 mm 3 mps 759 mmHg 72%
    13:00 +20°C° 0 mm 2 mps 759 mmHg 66%
    14:00 +21°C° 0.1 mm 2 mps 759 mmHg 64%
    15:00 +21°C° 0.1 mm 3 mps 759 mmHg 63%
    16:00 +22°C° 0.1 mm 3 mps 759 mmHg 61%
    17:00 +20°C° 0.1 mm 2 mps 759 mmHg 66%
    18:00 +19°C° 0.1 mm 2 mps 759 mmHg 71%
    19:00 +18°C° 0.1 mm 2 mps 759 mmHg 77%
    20:00 +17°C° 0 mm 2 mps 760 mmHg 78%
    21:00 +16°C° 0 mm 2 mps 760 mmHg 80%
    22:00 +16°C° 0 mm 2 mps 760 mmHg 81%
    23:00 +15°C° 0 mm 2 mps 760 mmHg 81%

    22 August, Thursday

    Time Temperature Precipitation Wind Pressure Humidity
    00:00 +15°C° 0 mm 2 mps 760 mmHg 81%
    01:00 +14°C° 0 mm 2 mps 761 mmHg 81%
    02:00 +14°C° 0 mm 2 mps 760 mmHg 82%
    03:00 +14°C° 0 mm 2 mps 760 mmHg 83%
    04:00 +13°C° 0 mm 2 mps 760 mmHg 85%
    05:00 +14°C° 0 mm 2 mps 760 mmHg 83%
    06:00 +15°C° 0 mm 2 mps 761 mmHg 81%
    07:00 +16°C° 0 mm 2 mps 761 mmHg 79%
    08:00 +18°C° 0 mm 1 mps 761 mmHg 71%
    09:00 +20°C° 0 mm 1 mps 761 mmHg 63%
    10:00 +22°C° 0 mm 1 mps 761 mmHg 54%
    11:00 +22°C° 0 mm 1 mps 761 mmHg 50%
    12:00 +23°C° 0 mm 1 mps 760 mmHg 45%
    13:00 +24°C° 0 mm 1 mps 760 mmHg 40%
    14:00 +24°C° 0 mm 1 mps 760 mmHg 39%
    15:00 +24°C° 0 mm 1 mps 760 mmHg 38%
    16:00 +24°C° 0 mm 1 mps 760 mmHg 37%
    17:00 +23°C° 0 mm 1 mps 760 mmHg 41%
    18:00 +21°C° 0 mm 1 mps 760 mmHg 45%
    19:00 +20°C° 0 mm 1 mps 760 mmHg 49%
    20:00 +19°C° 0 mm 1 mps 760 mmHg 51%
    21:00 +18°C° 0 mm 1 mps 760 mmHg 52%
    22:00 +16°C° 0 mm 0 mps 761 mmHg 53%
    23:00 +15°C° 0 mm 0 mps 761 mmHg 55%

    23 August, Friday

    Time Temperature Precipitation Wind Pressure Humidity
    00:00 +15°C° 0 mm 0 mps 761 mmHg 57%
    01:00 +14°C° 0 mm 0 mps 761 mmHg 59%
    02:00 +14°C° 0 mm 0 mps 761 mmHg 60%
    03:00 +14°C° 0 mm 0 mps 761 mmHg 61%
    04:00 +13°C° 0 mm 0 mps 761 mmHg 62%
    05:00 +15°C° 0 mm 0 mps 761 mmHg 61%
    06:00 +16°C° 0 mm 0 mps 761 mmHg 59%
    07:00 +17°C° 0 mm 0 mps 761 mmHg 57%
    08:00 +18°C° 0 mm 0 mps 761 mmHg 53%
    09:00 +22°C° 0 mm 1 mps 762 mmHg 48%
    10:00 +24°C° 0 mm 1 mps 762 mmHg 44%
    11:00 +24°C° 0 mm 1 mps 762 mmHg 41%
    12:00 +25°C° 0 mm 1 mps 761 mmHg 39%
    13:00 +26°C° 0 mm 1 mps 761 mmHg 36%
    14:00 +26°C° 0 mm 1 mps 761 mmHg 36%
    15:00 +26°C° 0 mm 1 mps 761 mmHg 36%
    16:00 +26°C° 0 mm 2 mps 761 mmHg 36%
    17:00 +24°C° 0 mm 2 mps 761 mmHg 42%
    18:00 +23°C° 0 mm 2 mps 761 mmHg 47%
    19:00 +20°C° 0 mm 2 mps 760 mmHg 53%
    20:00 +19°C° 0 mm 2 mps 761 mmHg 54%
    21:00 +19°C° 0 mm 3 mps 761 mmHg 56%
    22:00 +18°C° 0 mm 3 mps 761 mmHg 58%
    23:00 +17°C° 0 mm 3 mps 761 mmHg 60%
    Show more